EDW786 EDDP-EBBR

Flight info

Callsign EDW786
Flight time 1h 7m
Altitude 40000
Route ORTAG5Q/08L ORTAG Q230 KUMER DCT WRB DCT ABAMI Z717 NEREL/N0353F240 T855 AGENI/N0323F180 T855 BATTY
Aircraft A343/H-SDE2E3FGHIJ4J5M1RWXY/LB1D1

Departure

Time 2026-05-07 18:13
Airport Leipzig/Halle Airport (EDDP)

Arrival

Time 2026-05-07 19:20
Airport Brussels Airport (EBBR)
Time Latitude Longitude Altitude Speed Heading
2026-05-07 17:45 51.41884 12.22105 449 ft 0 kts 15°
2026-05-07 18:04 51.41877 12.22103 449 ft 2 kts 15°
2026-05-07 18:04 51.41863 12.22096 449 ft 2 kts 15°
2026-05-07 18:04 51.41849 12.22090 450 ft 2 kts 15°
2026-05-07 18:05 51.41833 12.22082 448 ft 3 kts 360°
2026-05-07 18:05 51.41816 12.22086 449 ft 2 kts 320°
2026-05-07 18:05 51.41807 12.22101 449 ft 0 kts 290°
2026-05-07 18:05 51.41807 12.22099 449 ft 0 kts 290°
2026-05-07 18:06 51.41812 12.22046 449 ft 9 kts 277°
2026-05-07 18:06 51.41828 12.21904 448 ft 16 kts 283°
2026-05-07 18:07 51.41863 12.21696 434 ft 22 kts 285°
2026-05-07 18:07 51.41909 12.21426 429 ft 28 kts 285°
2026-05-07 18:07 51.41964 12.21105 424 ft 31 kts 285°
2026-05-07 18:07 51.41977 12.21028 428 ft 5 kts 285°
2026-05-07 18:08 51.42008 12.20946 417 ft 11 kts 324°
2026-05-07 18:08 51.42090 12.20943 423 ft 13 kts 10°
2026-05-07 18:08 51.42185 12.20981 429 ft 15 kts 15°
2026-05-07 18:08 51.42287 12.21026 424 ft 16 kts 15°
2026-05-07 18:09 51.42396 12.21074 433 ft 17 kts 15°
2026-05-07 18:09 51.42514 12.21124 446 ft 20 kts 15°
2026-05-07 18:09 51.42664 12.21190 431 ft 26 kts 16°
2026-05-07 18:09 51.42858 12.21277 428 ft 29 kts 18°
2026-05-07 18:10 51.42898 12.21307 421 ft 5 kts 29°
2026-05-07 18:10 51.42943 12.21369 421 ft 12 kts 45°
2026-05-07 18:10 51.42950 12.21380 427 ft 0 kts 45°
2026-05-07 18:11 51.42963 12.21401 422 ft 5 kts 45°
2026-05-07 18:11 51.42996 12.21453 427 ft 9 kts 45°
2026-05-07 18:11 51.43079 12.21589 425 ft 22 kts 47°
2026-05-07 18:12 51.43132 12.21774 435 ft 21 kts 82°
2026-05-07 18:12 51.43151 12.22128 430 ft 60 kts 85°
2026-05-07 18:12 51.43204 12.23263 453 ft 142 kts 85°
2026-05-07 18:12 51.43266 12.25181 732 ft 189 kts 89°
2026-05-07 18:13 51.43218 12.27468 1365 ft 228 kts 95°
2026-05-07 18:13 51.43387 12.30180 2023 ft 262 kts 66°
2026-05-07 18:13 51.44565 12.32393 3051 ft 266 kts 30°
2026-05-07 18:13 51.46303 12.33045 4563 ft 256 kts 355°
2026-05-07 18:14 51.47858 12.32064 5837 ft 229 kts 320°
2026-05-07 18:14 51.48832 12.30103 6656 ft 226 kts 304°
2026-05-07 18:14 51.49680 12.27946 7004 ft 230 kts 303°
2026-05-07 18:14 51.50634 12.25889 7077 ft 229 kts 314°
2026-05-07 18:15 51.51847 12.24239 7078 ft 229 kts 327°
2026-05-07 18:15 51.53139 12.22630 7085 ft 251 kts 313°
2026-05-07 18:15 51.53998 12.20036 7266 ft 281 kts 281°
2026-05-07 18:15 51.54058 12.16822 8081 ft 291 kts 267°
2026-05-07 18:16 51.53920 12.13621 9369 ft 285 kts 266°
2026-05-07 18:16 51.53772 12.10441 10413 ft 288 kts 267°
2026-05-07 18:16 51.53621 12.07135 10901 ft 308 kts 267°
2026-05-07 18:16 51.53460 12.03587 11374 ft 325 kts 267°
2026-05-07 18:17 51.53291 11.99922 12110 ft 333 kts 267°
2026-05-07 18:17 51.53117 11.96183 12929 ft 338 kts 267°
2026-05-07 18:17 51.52940 11.92391 13758 ft 344 kts 267°
2026-05-07 18:17 51.52758 11.88533 14515 ft 348 kts 267°
2026-05-07 18:18 51.52573 11.84629 15278 ft 353 kts 267°
2026-05-07 18:18 51.52386 11.80676 16051 ft 357 kts 267°
2026-05-07 18:18 51.52343 11.76670 16812 ft 360 kts 271°
2026-05-07 18:18 51.52362 11.72635 17598 ft 364 kts 272°
2026-05-07 18:19 51.52408 11.68534 18375 ft 368 kts 272°
2026-05-07 18:19 51.52470 11.64463 19036 ft 372 kts 272°
2026-05-07 18:19 51.52541 11.60284 19712 ft 375 kts 272°
2026-05-07 18:19 51.52613 11.56115 20552 ft 373 kts 272°
2026-05-07 18:20 51.52684 11.51929 21218 ft 377 kts 272°
2026-05-07 18:20 51.52754 11.47698 21836 ft 382 kts 272°
2026-05-07 18:20 51.52822 11.43410 22454 ft 386 kts 272°
2026-05-07 18:20 51.52887 11.39088 23086 ft 389 kts 272°
2026-05-07 18:21 51.52951 11.34727 23695 ft 392 kts 272°
2026-05-07 18:21 51.53013 11.30327 24183 ft 396 kts 272°
2026-05-07 18:21 51.53075 11.25838 24694 ft 399 kts 272°
2026-05-07 18:21 51.53134 11.21420 25197 ft 402 kts 272°
2026-05-07 18:22 51.53192 11.16923 25700 ft 404 kts 272°
2026-05-07 18:22 51.53231 11.13876 26039 ft 406 kts 272°
2026-05-07 18:22 51.53305 11.07865 26772 ft 407 kts 271°
2026-05-07 18:22 51.53359 11.03313 27274 ft 408 kts 271°
2026-05-07 18:23 51.53411 10.98731 27700 ft 412 kts 271°
2026-05-07 18:23 51.53462 10.94115 28134 ft 415 kts 271°
2026-05-07 18:23 51.53512 10.89466 28536 ft 418 kts 271°
2026-05-07 18:23 51.53560 10.84783 28948 ft 421 kts 271°
2026-05-07 18:24 51.53607 10.80069 29371 ft 424 kts 271°
2026-05-07 18:24 51.53652 10.75316 29780 ft 426 kts 271°
2026-05-07 18:24 51.53695 10.70544 30176 ft 429 kts 271°
2026-05-07 18:24 51.53737 10.65739 30510 ft 431 kts 271°
2026-05-07 18:25 51.53775 10.60913 30819 ft 434 kts 270°
2026-05-07 18:25 51.53747 10.56050 31104 ft 438 kts 269°
2026-05-07 18:25 51.53661 10.51145 31414 ft 440 kts 268°
2026-05-07 18:25 51.53556 10.46218 31718 ft 443 kts 268°
2026-05-07 18:26 51.53448 10.41258 32009 ft 445 kts 268°
2026-05-07 18:26 51.53346 10.36281 32319 ft 447 kts 268°
2026-05-07 18:26 51.53250 10.31292 32734 ft 447 kts 268°
2026-05-07 18:26 51.53159 10.26304 33132 ft 446 kts 268°
2026-05-07 18:27 51.53069 10.21326 33513 ft 446 kts 268°
2026-05-07 18:27 51.52980 10.16337 33893 ft 447 kts 268°
2026-05-07 18:27 51.52888 10.11354 34230 ft 446 kts 269°
2026-05-07 18:27 51.52794 10.06383 34572 ft 446 kts 268°
2026-05-07 18:28 51.52698 10.01412 34913 ft 445 kts 268°
2026-05-07 18:28 51.52600 9.96449 35233 ft 444 kts 268°
2026-05-07 18:28 51.52500 9.91504 35547 ft 443 kts 268°
2026-05-07 18:28 51.52397 9.86563 35854 ft 443 kts 268°
2026-05-07 18:29 51.52293 9.81610 36047 ft 445 kts 268°
2026-05-07 18:29 51.52076 9.71654 36085 ft 445 kts 268°
2026-05-07 18:30 51.51851 9.61731 36078 ft 444 kts 268°
2026-05-07 18:30 51.51619 9.51827 36078 ft 443 kts 268°
2026-05-07 18:31 51.51379 9.41946 36077 ft 443 kts 268°
2026-05-07 18:31 51.51130 9.32058 36085 ft 443 kts 268°
2026-05-07 18:32 51.50856 9.22178 36089 ft 443 kts 265°
2026-05-07 18:32 51.49840 9.12431 36092 ft 443 kts 258°
2026-05-07 18:33 51.48444 9.02803 36096 ft 443 kts 256°
2026-05-07 18:33 51.46983 8.93268 36097 ft 443 kts 256°
2026-05-07 18:34 51.45516 8.83662 36099 ft 443 kts 256°
2026-05-07 18:34 51.44062 8.74077 36101 ft 442 kts 256°
2026-05-07 18:35 51.42608 8.64509 36099 ft 442 kts 256°
2026-05-07 18:35 51.41146 8.54950 36098 ft 441 kts 256°
2026-05-07 18:36 51.39678 8.45417 36096 ft 441 kts 256°
2026-05-07 18:36 51.38202 8.35886 35998 ft 440 kts 256°
2026-05-07 18:36 51.37464 8.31138 35497 ft 439 kts 256°
2026-05-07 18:37 51.36725 8.26404 34933 ft 439 kts 256°
2026-05-07 18:37 51.35985 8.21671 34348 ft 439 kts 256°
2026-05-07 18:37 51.35240 8.16927 33681 ft 440 kts 256°
2026-05-07 18:37 51.34492 8.12171 33007 ft 440 kts 256°
2026-05-07 18:38 51.33746 8.07440 32379 ft 439 kts 256°
2026-05-07 18:38 51.32997 8.02712 31714 ft 439 kts 256°
2026-05-07 18:38 51.32247 7.97984 31123 ft 437 kts 256°
2026-05-07 18:38 51.31500 7.93296 30585 ft 434 kts 256°
2026-05-07 18:39 51.30758 7.88649 30062 ft 431 kts 256°
2026-05-07 18:39 51.30019 7.84034 29500 ft 426 kts 256°
2026-05-07 18:39 51.29286 7.79469 28950 ft 422 kts 256°
2026-05-07 18:39 51.28558 7.74944 28394 ft 419 kts 256°
2026-05-07 18:40 51.27834 7.70460 27855 ft 415 kts 256°
2026-05-07 18:40 51.27116 7.66023 27323 ft 411 kts 256°
2026-05-07 18:40 51.26401 7.61614 26814 ft 408 kts 256°
2026-05-07 18:40 51.25692 7.57255 26268 ft 405 kts 256°
2026-05-07 18:41 51.24979 7.52884 25407 ft 410 kts 255°
2026-05-07 18:41 51.24250 7.48427 24313 ft 421 kts 255°
2026-05-07 18:41 51.23502 7.43859 23211 ft 430 kts 255°
2026-05-07 18:41 51.22744 7.39249 22416 ft 428 kts 255°
2026-05-07 18:42 51.22005 7.34770 22121 ft 415 kts 255°
2026-05-07 18:42 51.21284 7.30409 22087 ft 397 kts 255°
2026-05-07 18:42 51.20586 7.26199 22084 ft 381 kts 255°
2026-05-07 18:42 51.19921 7.22197 22077 ft 377 kts 255°
2026-05-07 18:43 51.19249 7.18161 22065 ft 378 kts 255°
2026-05-07 18:43 51.18572 7.14104 22080 ft 379 kts 255°
2026-05-07 18:43 51.17894 7.10054 22072 ft 379 kts 255°
2026-05-07 18:43 51.17214 7.05995 22077 ft 379 kts 255°
2026-05-07 18:44 51.16533 7.01942 22070 ft 379 kts 255°
2026-05-07 18:44 51.15851 6.97895 22063 ft 379 kts 255°
2026-05-07 18:44 51.15167 6.93846 22068 ft 378 kts 255°
2026-05-07 18:44 51.14494 6.89867 22014 ft 365 kts 255°
2026-05-07 18:45 51.13842 6.86027 21840 ft 354 kts 255°
2026-05-07 18:45 51.13207 6.82294 21646 ft 345 kts 255°
2026-05-07 18:45 51.12588 6.78661 21475 ft 336 kts 255°
2026-05-07 18:45 51.11979 6.75095 21110 ft 333 kts 255°
2026-05-07 18:46 51.11366 6.71510 20382 ft 341 kts 255°
2026-05-07 18:46 51.10727 6.67779 19284 ft 358 kts 255°
2026-05-07 18:46 51.10052 6.63842 17914 ft 381 kts 255°
2026-05-07 18:46 51.09268 6.59734 16756 ft 393 kts 249°
2026-05-07 18:47 51.08013 6.55903 16216 ft 388 kts 236°
2026-05-07 18:47 51.06359 6.52607 16091 ft 372 kts 229°
2026-05-07 18:47 51.04650 6.49652 16079 ft 355 kts 227°
2026-05-07 18:47 51.02957 6.46930 16078 ft 338 kts 225°
2026-05-07 18:48 51.01311 6.44371 16074 ft 324 kts 225°
2026-05-07 18:48 50.99731 6.41939 16072 ft 310 kts 225°
2026-05-07 18:48 50.98214 6.39600 16072 ft 298 kts 225°
2026-05-07 18:48 50.96764 6.37351 16072 ft 286 kts 225°
2026-05-07 18:49 50.95370 6.35177 16074 ft 275 kts 225°
2026-05-07 18:49 50.94033 6.33083 16074 ft 265 kts 226°
2026-05-07 18:49 50.92762 6.31088 16074 ft 257 kts 226°
2026-05-07 18:49 50.91503 6.29110 16074 ft 254 kts 226°
2026-05-07 18:50 50.90250 6.27142 16072 ft 254 kts 226°
2026-05-07 18:50 50.88991 6.25164 16076 ft 261 kts 226°
2026-05-07 18:50 50.87622 6.23011 16061 ft 293 kts 226°
2026-05-07 18:50 50.86140 6.20684 16060 ft 305 kts 225°
2026-05-07 18:51 50.84623 6.18313 16068 ft 307 kts 225°
2026-05-07 18:51 50.83103 6.15942 16071 ft 307 kts 225°
2026-05-07 18:51 50.82094 6.14370 16071 ft 307 kts 225°
2026-05-07 18:51 50.80573 6.12002 16069 ft 307 kts 225°
2026-05-07 18:52 50.79052 6.09613 15795 ft 308 kts 227°
2026-05-07 18:52 50.77773 6.06933 15481 ft 305 kts 240°
2026-05-07 18:52 50.77005 6.03803 14899 ft 312 kts 258°
2026-05-07 18:52 50.76971 6.00303 13947 ft 329 kts 277°
2026-05-07 18:53 50.77382 5.96615 12644 ft 352 kts 281°
2026-05-07 18:53 50.77891 5.92735 11414 ft 369 kts 281°
2026-05-07 18:53 50.78421 5.88686 10788 ft 367 kts 281°
2026-05-07 18:53 50.78910 5.84896 10784 ft 347 kts 281°
2026-05-07 18:54 50.79381 5.81200 10648 ft 332 kts 281°
2026-05-07 18:54 50.79822 5.77709 10349 ft 325 kts 281°
2026-05-07 18:54 50.80261 5.74206 9698 ft 327 kts 281°
2026-05-07 18:54 50.80709 5.70619 8627 ft 339 kts 281°
2026-05-07 18:55 50.81173 5.66878 7440 ft 354 kts 281°
2026-05-07 18:55 50.81648 5.63048 6689 ft 354 kts 281°
2026-05-07 18:55 50.82115 5.59272 6226 ft 344 kts 281°
2026-05-07 18:55 50.82561 5.55653 6095 ft 325 kts 281°
2026-05-07 18:56 50.82978 5.52257 6094 ft 305 kts 281°
2026-05-07 18:56 50.83369 5.49066 6087 ft 287 kts 281°
2026-05-07 18:56 50.83738 5.46054 6085 ft 273 kts 281°
2026-05-07 18:56 50.84112 5.43130 6082 ft 271 kts 284°
2026-05-07 18:57 50.84723 5.40310 6079 ft 272 kts 291°
2026-05-07 18:57 50.85451 5.37541 6078 ft 272 kts 292°
2026-05-07 18:57 50.86190 5.34788 6080 ft 272 kts 292°
2026-05-07 18:57 50.86931 5.32034 6081 ft 272 kts 292°
2026-05-07 18:58 50.87673 5.29270 6083 ft 272 kts 292°
2026-05-07 18:58 50.88412 5.26514 6083 ft 272 kts 292°
2026-05-07 18:58 50.89149 5.23760 6084 ft 272 kts 292°
2026-05-07 18:58 50.89887 5.21002 6083 ft 272 kts 292°
2026-05-07 18:59 50.90626 5.18240 6084 ft 272 kts 292°
2026-05-07 18:59 50.91363 5.15481 6084 ft 272 kts 292°
2026-05-07 18:59 50.92097 5.12720 6084 ft 272 kts 292°
2026-05-07 18:59 50.92829 5.09968 6084 ft 272 kts 292°
2026-05-07 19:00 50.93565 5.07198 6083 ft 272 kts 292°
2026-05-07 19:00 50.94269 5.04428 5959 ft 269 kts 288°
2026-05-07 19:00 50.94770 5.01570 5549 ft 270 kts 283°
2026-05-07 19:00 50.95192 4.98668 5152 ft 270 kts 283°
2026-05-07 19:01 50.95602 4.95758 4658 ft 273 kts 283°
2026-05-07 19:01 50.96018 4.92779 4171 ft 276 kts 283°
2026-05-07 19:01 50.96426 4.89860 4019 ft 266 kts 282°
2026-05-07 19:01 50.96825 4.87002 4009 ft 265 kts 283°
2026-05-07 19:02 50.97221 4.84138 4005 ft 266 kts 282°
2026-05-07 19:02 50.97180 4.81239 3930 ft 264 kts 252°
2026-05-07 19:02 50.96391 4.78626 3604 ft 261 kts 240°
2026-05-07 19:02 50.95516 4.76143 3390 ft 254 kts 242°
2026-05-07 19:03 50.94783 4.73652 3196 ft 243 kts 248°
2026-05-07 19:03 50.94236 4.71214 2944 ft 227 kts 251°
2026-05-07 19:03 50.93722 4.68890 2562 ft 220 kts 250°
2026-05-07 19:03 50.93201 4.66649 2125 ft 216 kts 249°
2026-05-07 19:04 50.92694 4.64468 1826 ft 207 kts 250°
2026-05-07 19:04 50.92213 4.62370 1543 ft 198 kts 250°
2026-05-07 19:04 50.91747 4.60360 1285 ft 190 kts 250°
2026-05-07 19:04 50.91303 4.58440 1014 ft 181 kts 250°
2026-05-07 19:05 50.90886 4.56631 768 ft 170 kts 250°
2026-05-07 19:05 50.90483 4.54880 559 ft 168 kts 250°
2026-05-07 19:05 50.90048 4.52996 938 ft 201 kts 250°
2026-05-07 19:05 50.89550 4.50754 1663 ft 232 kts 252°
2026-05-07 19:06 50.88762 4.48383 2404 ft 253 kts 227°
2026-05-07 19:06 50.85839 4.46737 3812 ft 227 kts 166°
2026-05-07 19:06 50.84455 4.47855 3987 ft 226 kts 135°
2026-05-07 19:07 50.83602 4.49919 4009 ft 225 kts 112°
2026-05-07 19:07 50.83064 4.52254 4001 ft 227 kts 108°
2026-05-07 19:07 50.82573 4.54626 4001 ft 227 kts 107°
2026-05-07 19:07 50.82087 4.57004 4002 ft 227 kts 107°
2026-05-07 19:08 50.81600 4.59389 4003 ft 227 kts 107°
2026-05-07 19:08 50.81121 4.61736 4000 ft 227 kts 107°
2026-05-07 19:08 50.80669 4.64166 4000 ft 227 kts 101°
2026-05-07 19:08 50.80493 4.66643 4002 ft 227 kts 93°
2026-05-07 19:09 50.80409 4.69140 4003 ft 227 kts 92°
2026-05-07 19:09 50.80335 4.71641 4007 ft 228 kts 92°
2026-05-07 19:09 50.80262 4.74139 4011 ft 228 kts 92°
2026-05-07 19:09 50.80188 4.76642 4007 ft 228 kts 92°
2026-05-07 19:10 50.80113 4.79149 4007 ft 228 kts 92°
2026-05-07 19:10 50.80039 4.81651 4007 ft 228 kts 92°
2026-05-07 19:10 50.79966 4.84152 4006 ft 228 kts 92°
2026-05-07 19:10 50.80202 4.86607 4007 ft 228 kts 66°
2026-05-07 19:11 50.81025 4.88744 4013 ft 228 kts 54°
2026-05-07 19:11 50.81980 4.90738 4008 ft 228 kts 53°
2026-05-07 19:11 50.82956 4.92726 4012 ft 229 kts 52°
2026-05-07 19:11 50.83950 4.94688 4007 ft 229 kts 48°
2026-05-07 19:12 50.85259 4.96049 4007 ft 223 kts 17°
2026-05-07 19:12 50.86709 4.96114 4012 ft 198 kts 349°
2026-05-07 19:12 50.88002 4.95556 4007 ft 190 kts 343°
2026-05-07 19:12 50.89244 4.94917 3717 ft 187 kts 342°
2026-05-07 19:13 50.90483 4.94266 3297 ft 189 kts 342°
2026-05-07 19:13 50.91730 4.93612 2920 ft 188 kts 342°
2026-05-07 19:13 50.92973 4.92960 2552 ft 188 kts 342°
2026-05-07 19:13 50.94209 4.92310 2185 ft 187 kts 342°
2026-05-07 19:14 50.95418 4.91610 1924 ft 184 kts 334°
2026-05-07 19:14 50.96335 4.90205 1910 ft 187 kts 298°
2026-05-07 19:14 50.96774 4.88265 1916 ft 188 kts 285°
2026-05-07 19:14 50.96981 4.86224 1900 ft 189 kts 267°
2026-05-07 19:15 50.96880 4.84155 1910 ft 188 kts 265°
2026-05-07 19:15 50.96627 4.82118 1909 ft 188 kts 253°
2026-05-07 19:15 50.96235 4.80195 1899 ft 177 kts 251°
2026-05-07 19:15 50.95851 4.78399 1907 ft 170 kts 251°
2026-05-07 19:16 50.95473 4.76622 1909 ft 170 kts 251°
2026-05-07 19:16 50.95073 4.74856 1907 ft 170 kts 250°
2026-05-07 19:16 50.94668 4.73107 1905 ft 169 kts 250°
2026-05-07 19:16 50.94273 4.71383 1906 ft 168 kts 250°
2026-05-07 19:17 50.93877 4.69643 1930 ft 166 kts 250°
2026-05-07 19:17 50.93488 4.67940 1924 ft 163 kts 250°
2026-05-07 19:17 50.93094 4.66221 1920 ft 164 kts 250°
2026-05-07 19:17 50.92701 4.64510 1822 ft 167 kts 250°
2026-05-07 19:18 50.92296 4.62753 1589 ft 180 kts 250°
2026-05-07 19:18 50.91862 4.60865 1330 ft 180 kts 250°
2026-05-07 19:18 50.91453 4.59094 1097 ft 162 kts 250°
2026-05-07 19:18 50.91084 4.57492 882 ft 148 kts 250°
2026-05-07 19:19 50.90741 4.56003 683 ft 139 kts 250°
2026-05-07 19:19 50.90416 4.54593 504 ft 134 kts 250°
2026-05-07 19:19 50.90096 4.53203 323 ft 134 kts 250°
2026-05-07 19:19 50.89777 4.51821 175 ft 130 kts 250°
2026-05-07 19:20 50.89579 4.50963 179 ft 25 kts 250°
2026-05-07 19:20 50.89522 4.50711 179 ft 30 kts 250°
2026-05-07 19:20 50.89490 4.50388 179 ft 31 kts 271°
2026-05-07 19:20 50.89519 4.50083 174 ft 4 kts 280°
2026-05-07 19:21 50.89521 4.50067 174 ft 5 kts 280°
2026-05-07 19:21 50.89532 4.49972 173 ft 12 kts 280°
2026-05-07 19:21 50.89513 4.49835 172 ft 15 kts 250°
2026-05-07 19:21 50.89463 4.49619 172 ft 22 kts 250°
2026-05-07 19:22 50.89491 4.49404 169 ft 25 kts 309°
2026-05-07 19:22 50.89557 4.49278 163 ft 0 kts 307°
2026-05-07 19:23 50.89563 4.49266 162 ft 6 kts 307°
2026-05-07 19:24 50.89610 4.49175 159 ft 14 kts 323°
2026-05-07 19:24 50.89731 4.49180 151 ft 22 kts 13°
2026-05-07 19:24 50.89900 4.49249 142 ft 29 kts 14°
2026-05-07 19:24 50.90084 4.49323 130 ft 6 kts 14°
2026-05-07 19:25 50.90096 4.49328 130 ft 5 kts 14°
2026-05-07 19:25 50.90147 4.49349 129 ft 11 kts 14°
2026-05-07 19:25 50.90228 4.49382 128 ft 14 kts 14°
2026-05-07 19:25 50.90267 4.49397 126 ft 4 kts 13°
2026-05-07 19:26 50.90312 4.49388 124 ft 9 kts 334°
2026-05-07 19:26 50.90379 4.49328 123 ft 13 kts 334°
2026-05-07 19:26 50.90433 4.49289 124 ft 0 kts 335°
2026-05-07 19:26 50.90454 4.49273 122 ft 7 kts 335°
2026-05-07 19:27 50.90466 4.49264 121 ft 0 kts 335°
2026-05-07 19:29 50.90474 4.49259 123 ft 3 kts 335°
2026-05-07 19:29 50.90476 4.49257 123 ft 0 kts 335°
2026-05-07 19:30 50.90495 4.49244 123 ft 4 kts 336°
2026-05-07 19:30 50.90529 4.49220 123 ft 7 kts 336°
2026-05-07 19:31 50.90586 4.49178 123 ft 8 kts 335°
2026-05-07 19:31 50.90588 4.49177 123 ft 0 kts 335°
2026-05-07 19:31 50.90594 4.49173 123 ft 0 kts 335°
2026-05-07 19:32 50.90596 4.49171 123 ft 2 kts 334°
2026-05-07 19:32 50.90601 4.49167 122 ft 0 kts 334°
2026-05-07 19:33 50.90626 4.49143 121 ft 7 kts 320°
2026-05-07 19:33 50.90636 4.49092 123 ft 8 kts 271°
2026-05-07 19:33 50.90633 4.49081 122 ft 1 kts 246°
2026-05-07 19:33 50.90623 4.49068 120 ft 4 kts 220°
2026-05-07 19:34 50.90584 4.49045 121 ft 8 kts 193°
2026-05-07 19:34 50.90548 4.49034 122 ft 0 kts 191°
2026-05-07 19:34 50.90545 4.49034 122 ft 0 kts 189°
2026-05-07 19:34 50.90541 4.49033 122 ft 0 kts 189°